Location: Dover
(39.1580°N, 75.5250°W)
Time: 18:22:14
(UTC-04:00)

SeaSat 1 - Visible Passes

Search period start: 24 July 2016 00:00
Search period end: 03 August 2016 00:00
Orbit: 746 x 747 km, 108.0° (Epoch: 24 July)

Date Brightness Start Highest point End Pass type
(mag) Time Alt. Az. Time Alt. Az. Time Alt. Az.
24 Jul 3.4 01:33:33 43° NE 01:33:33 43° NE 01:38:00 10° NNW visible
24 Jul 4.3 03:13:21 17° WNW 03:13:21 17° WNW 03:14:54 10° NW visible
25 Jul 4.6 00:50:35 17° ENE 00:51:49 18° NE 00:55:08 10° N visible
25 Jul 3.2 02:30:22 43° NW 02:30:22 43° NW 02:33:47 10° NNW visible
26 Jul 3.3 01:47:23 47° NE 01:47:23 47° NE 01:51:46 10° NNW visible
26 Jul 4.4 03:27:10 15° WNW 03:27:10 15° WNW 03:28:26 10° WNW visible
27 Jul 4.5 01:04:25 19° ENE 01:05:29 20° NE 01:09:00 10° N visible
27 Jul 3.3 02:44:11 39° NW 02:44:11 39° NW 02:47:27 10° NNW visible
28 Jul 3.1 02:01:12 51° NE 02:01:12 51° NE 02:05:31 10° NNW visible
28 Jul 4.5 03:40:59 13° WNW 03:40:59 13° WNW 03:41:56 10° WNW visible
29 Jul 4.4 01:18:12 21° ENE 01:19:08 22° NE 01:22:51 10° N visible
29 Jul 3.4 02:58:00 36° WNW 02:58:00 36° WNW 03:01:08 10° NW visible
30 Jul 3.0 02:14:59 54° NNE 02:14:59 54° NNE 02:19:16 10° NNW visible
30 Jul 4.6 03:54:47 12° WNW 03:54:47 12° WNW 03:55:23 10° WNW visible
31 Jul 4.3 01:31:59 23° ENE 01:32:48 24° NE 01:36:41 10° N visible
31 Jul 3.5 03:11:46 33° WNW 03:11:46 33° WNW 03:14:47 10° NW visible
01 Aug 5.3 00:50:57 10° NE 00:51:28 10° NE 00:51:59 10° NE visible
01 Aug 2.9 02:28:45 58° NNE 02:28:45 58° NNE 02:33:00 10° NNW visible
01 Aug 4.6 04:08:32 11° WNW 04:08:32 11° WNW 04:08:48 10° WNW visible
02 Aug 4.2 01:45:44 25° ENE 01:46:27 26° NE 01:50:30 10° N visible
02 Aug 3.6 03:25:31 30° WNW 03:25:31 30° WNW 03:28:26 10° NW visible
